Hourly Weather Kozhino

Today, 22 September, Tuesday

Time Temperature Precipitation Wind Pressure Humidity
00:00 +8°C° 0 mm 4 mps 743 mmHg 90%
01:00 +8°C° 0 mm 4 mps 743 mmHg 91%
02:00 +8°C° 0 mm 4 mps 743 mmHg 93%
03:00 +9°C° 0 mm 3 mps 744 mmHg 94%
04:00 +8°C° 0 mm 4 mps 743 mmHg 95%
05:00 +8°C° 0 mm 4 mps 743 mmHg 95%
06:00 +8°C° 0 mm 4 mps 743 mmHg 95%
07:00 +9°C° 0 mm 5 mps 743 mmHg 91%
08:00 +10°C° 0 mm 6 mps 743 mmHg 87%
09:00 +13°C° 0 mm 6 mps 744 mmHg 82%
10:00 +14°C° 0 mm 7 mps 743 mmHg 76%
11:00 +16°C° 0 mm 7 mps 743 mmHg 70%
12:00 +17°C° 0 mm 8 mps 743 mmHg 64%
13:00 +18°C° 0 mm 8 mps 743 mmHg 61%
14:00 +18°C° 0 mm 8 mps 743 mmHg 59%
15:00 +20°C° 0 mm 8 mps 743 mmHg 57%
16:00 +18°C° 0 mm 7 mps 743 mmHg 60%
17:00 +16°C° 0 mm 6 mps 742 mmHg 64%
18:00 +15°C° 0 mm 6 mps 742 mmHg 67%
19:00 +15°C° 0 mm 6 mps 742 mmHg 69%
20:00 +14°C° 0 mm 6 mps 743 mmHg 71%
21:00 +14°C° 0 mm 6 mps 743 mmHg 73%
22:00 +13°C° 0 mm 5 mps 743 mmHg 76%
23:00 +12°C° 0 mm 5 mps 743 mmHg 80%

Tomorrow, 23 September, Wednesday

Time Temperature Precipitation Wind Pressure Humidity
00:00 +12°C° 0 mm 4 mps 743 mmHg 83%
01:00 +11°C° 0 mm 4 mps 743 mmHg 86%
02:00 +11°C° 0 mm 4 mps 743 mmHg 89%
03:00 +10°C° 0 mm 4 mps 743 mmHg 91%
04:00 +10°C° 0 mm 3 mps 743 mmHg 92%
05:00 +10°C° 0 mm 3 mps 743 mmHg 93%
06:00 +9°C° 0 mm 3 mps 744 mmHg 93%
07:00 +11°C° 0 mm 3 mps 744 mmHg 88%
08:00 +12°C° 0 mm 3 mps 744 mmHg 83%
09:00 +13°C° 0 mm 3 mps 744 mmHg 77%
10:00 +16°C° 0 mm 3 mps 744 mmHg 72%
11:00 +17°C° 0 mm 2 mps 744 mmHg 66%
12:00 +19°C° 0 mm 2 mps 744 mmHg 61%
13:00 +19°C° 0 mm 2 mps 744 mmHg 59%
14:00 +20°C° 0 mm 2 mps 744 mmHg 57%
15:00 +21°C° 0 mm 2 mps 744 mmHg 55%
16:00 +19°C° 0 mm 2 mps 744 mmHg 61%
17:00 +18°C° 0 mm 2 mps 744 mmHg 66%
18:00 +17°C° 0 mm 2 mps 744 mmHg 71%
19:00 +16°C° 0 mm 2 mps 744 mmHg 74%
20:00 +16°C° 0 mm 2 mps 744 mmHg 77%
21:00 +15°C° 0 mm 2 mps 744 mmHg 80%
22:00 +15°C° 0 mm 2 mps 744 mmHg 81%
23:00 +14°C° 0 mm 2 mps 744 mmHg 82%

Day after tomorrow, 24 September, Thursday

Time Temperature Precipitation Wind Pressure Humidity
00:00 +14°C° 0 mm 2 mps 744 mmHg 83%
01:00 +14°C° 0 mm 2 mps 744 mmHg 83%
02:00 +13°C° 0 mm 1 mps 745 mmHg 83%
03:00 +13°C° 0 mm 1 mps 745 mmHg 84%
04:00 +13°C° 0 mm 1 mps 745 mmHg 83%
05:00 +13°C° 0 mm 1 mps 745 mmHg 82%
06:00 +12°C° 0 mm 1 mps 745 mmHg 82%
07:00 +14°C° 0 mm 2 mps 745 mmHg 77%
08:00 +15°C° 0 mm 2 mps 745 mmHg 72%
09:00 +16°C° 0 mm 2 mps 745 mmHg 68%
10:00 +17°C° 0 mm 2 mps 745 mmHg 62%
11:00 +19°C° 0 mm 2 mps 746 mmHg 56%
12:00 +20°C° 0 mm 2 mps 746 mmHg 50%
13:00 +21°C° 0 mm 2 mps 746 mmHg 48%
14:00 +21°C° 0 mm 2 mps 746 mmHg 46%
15:00 +23°C° 0 mm 2 mps 746 mmHg 44%
16:00 +21°C° 0 mm 2 mps 746 mmHg 49%
17:00 +19°C° 0 mm 2 mps 745 mmHg 55%
18:00 +18°C° 0 mm 2 mps 745 mmHg 60%
19:00 +17°C° 0 mm 2 mps 745 mmHg 62%
20:00 +16°C° 0 mm 2 mps 745 mmHg 64%
21:00 +15°C° 0 mm 2 mps 746 mmHg 66%
22:00 +15°C° 0 mm 2 mps 746 mmHg 67%
23:00 +15°C° 0 mm 2 mps 746 mmHg 68%

25 September, Friday

Time Temperature Precipitation Wind Pressure Humidity
00:00 +14°C° 0 mm 2 mps 746 mmHg 69%
01:00 +14°C° 0 mm 2 mps 746 mmHg 70%
02:00 +13°C° 0 mm 2 mps 746 mmHg 71%
03:00 +13°C° 0 mm 2 mps 746 mmHg 72%
04:00 +13°C° 0 mm 2 mps 746 mmHg 73%
05:00 +12°C° 0 mm 2 mps 745 mmHg 74%
06:00 +12°C° 0 mm 2 mps 745 mmHg 75%
07:00 +13°C° 0 mm 2 mps 745 mmHg 72%
08:00 +14°C° 0 mm 3 mps 745 mmHg 68%
09:00 +16°C° 0 mm 3 mps 746 mmHg 64%
10:00 +17°C° 0 mm 3 mps 746 mmHg 60%
11:00 +19°C° 0 mm 3 mps 746 mmHg 56%
12:00 +20°C° 0 mm 4 mps 746 mmHg 52%
13:00 +21°C° 0 mm 4 mps 746 mmHg 50%
14:00 +22°C° 0 mm 4 mps 746 mmHg 48%
15:00 +22°C° 0 mm 4 mps 745 mmHg 47%
16:00 +21°C° 0 mm 4 mps 745 mmHg 52%
17:00 +19°C° 0 mm 4 mps 745 mmHg 58%
18:00 +18°C° 0 mm 3 mps 745 mmHg 64%
19:00 +17°C° 0 mm 3 mps 745 mmHg 65%
20:00 +16°C° 0 mm 3 mps 745 mmHg 67%
21:00 +16°C° 0 mm 3 mps 745 mmHg 68%
22:00 +14°C° 0 mm 3 mps 745 mmHg 68%
23:00 +14°C° 0 mm 3 mps 745 mmHg 69%

26 September, Saturday

Time Temperature Precipitation Wind Pressure Humidity
00:00 +13°C° 0 mm 3 mps 745 mmHg 70%
01:00 +13°C° 0 mm 3 mps 745 mmHg 70%
02:00 +12°C° 0 mm 3 mps 745 mmHg 70%
03:00 +12°C° 0 mm 3 mps 745 mmHg 71%
04:00 +11°C° 0 mm 3 mps 745 mmHg 68%
05:00 +11°C° 0 mm 3 mps 745 mmHg 66%
06:00 +10°C° 0 mm 3 mps 746 mmHg 64%
07:00 +11°C° 0 mm 4 mps 746 mmHg 61%
08:00 +12°C° 0 mm 4 mps 746 mmHg 58%
09:00 +13°C° 0 mm 4 mps 746 mmHg 55%
10:00 +15°C° 0 mm 5 mps 746 mmHg 52%
11:00 +16°C° 0 mm 5 mps 746 mmHg 49%
12:00 +19°C° 0 mm 5 mps 746 mmHg 45%
13:00 +19°C° 0 mm 5 mps 746 mmHg 45%
14:00 +19°C° 0 mm 5 mps 746 mmHg 46%
15:00 +20°C° 0 mm 6 mps 746 mmHg 46%
16:00 +19°C° 0 mm 5 mps 746 mmHg 50%
17:00 +17°C° 0 mm 5 mps 746 mmHg 54%
18:00 +17°C° 0 mm 4 mps 746 mmHg 58%
19:00 +15°C° 0 mm 4 mps 746 mmHg 60%
20:00 +15°C° 0 mm 4 mps 746 mmHg 62%
21:00 +14°C° 0 mm 4 mps 746 mmHg 64%
22:00 +14°C° 0 mm 4 mps 746 mmHg 63%
23:00 +14°C° 0 mm 5 mps 746 mmHg 63%

27 September, Sunday

Time Temperature Precipitation Wind Pressure Humidity
00:00 +13°C° 0 mm 5 mps 746 mmHg 62%
01:00 +13°C° 0 mm 5 mps 746 mmHg 59%
02:00 +13°C° 0 mm 5 mps 747 mmHg 57%
03:00 +13°C° 0 mm 5 mps 747 mmHg 54%
04:00 +12°C° 0 mm 4 mps 747 mmHg 53%
05:00 +11°C° 0 mm 4 mps 747 mmHg 53%
06:00 +11°C° 0 mm 4 mps 747 mmHg 53%
07:00 +12°C° 0 mm 5 mps 747 mmHg 52%
08:00 +12°C° 0 mm 5 mps 748 mmHg 51%
09:00 +13°C° 0 mm 6 mps 748 mmHg 50%
10:00 +14°C° 0 mm 6 mps 748 mmHg 47%
11:00 +16°C° 0 mm 7 mps 748 mmHg 44%
12:00 +17°C° 0 mm 7 mps 748 mmHg 41%
13:00 +17°C° 0 mm 7 mps 748 mmHg 41%
14:00 +17°C° 0 mm 7 mps 747 mmHg 40%
15:00 +18°C° 0 mm 7 mps 747 mmHg 39%
16:00 +17°C° 0 mm 7 mps 747 mmHg 41%
17:00 +16°C° 0 mm 6 mps 747 mmHg 43%
18:00 +15°C° 0 mm 5 mps 747 mmHg 45%
19:00 +15°C° 0 mm 6 mps 747 mmHg 44%
20:00 +15°C° 0 mm 6 mps 747 mmHg 44%
21:00 +15°C° 0 mm 6 mps 747 mmHg 43%
22:00 +14°C° 0 mm 6 mps 747 mmHg 42%
23:00 +14°C° 0 mm 6 mps 747 mmHg 41%
Show more